| time (UTC) | temp C | wind direction | speed KPH | gust KPH | rain 1hr cm | rain 24hr cm | rain mn cm | humidity % | barometer mb |
| 20260508051509 | 20 | 93 | 0.0 | 1.6 | 0.00 | 0.00 | 0.00 | 32 | 1008.0 |
| 20260508050009 | 21 | 93 | 0.0 | 1.6 | 0.00 | 0.00 | 0.00 | 31 | 1008.0 |
| 20260508044513 | 21 | 93 | 0.0 | 0.0 | 0.00 | 0.00 | 0.00 | 28 | 1007.9 |
| 20260508043008 | 22 | 93 | 0.0 | 4.8 | 0.00 | 0.00 | 0.00 | 27 | 1007.8 |
| 20260508041508 | 22 | 94 | 0.0 | 4.8 | 0.00 | 0.00 | 0.00 | 25 | 1007.5 |
| 20260508040009 | 22 | 105 | 0.0 | 3.2 | 0.00 | 0.00 | 0.00 | 25 | 1007.5 |
| 20260508034506 | 22 | 290 | 0.0 | 0.0 | 0.00 | 0.00 | 0.00 | 27 | 1007.0 |
| 20260508033015 | 23 | 287 | 0.0 | 0.0 | 0.00 | 0.00 | 0.00 | 25 | 1006.7 |
| 20260508031505 | 23 | 287 | 0.0 | 6.4 | 0.00 | 0.00 | 0.00 | 24 | 1006.5 |
| 20260508030005 | 24 | 259 | 0.0 | 8.0 | 0.00 | 0.00 | 0.00 | 22 | 1006.4 |
| 20260508024504 | 25 | 323 | 6.4 | 19.3 | 0.00 | 0.00 | 0.00 | 20 | 1005.8 |
| 20260508023003 | 26 | 333 | 6.4 | 16.1 | 0.00 | 0.00 | 0.00 | 18 | 1005.3 |
| 20260508021503 | 27 | 347 | 8.0 | 17.7 | 0.00 | 0.00 | 0.00 | 14 | 1004.7 |
| 20260508020004 | 28 | 313 | 8.0 | 0.0 | 0.00 | 0.00 | 0.00 | 14 | 1004.3 |
| 20260508014505 | 28 | 323 | 4.8 | 20.9 | 0.00 | 0.00 | 0.00 | 13 | 1004.0 |
| 20260508013110 | 30 | 308 | 11.3 | 25.7 | 0.00 | 0.00 | 0.00 | 13 | 1003.9 |
| 20260508011603 | 30 | 325 | 1.6 | 6.4 | 0.00 | 0.00 | 0.00 | 13 | 1003.9 |
| 20260508010057 | 31 | 328 | 3.2 | 8.0 | 0.00 | 0.00 | 0.00 | 12 | 1003.8 |
| 20260508004600 | 30 | 305 | 3.2 | 9.7 | 0.00 | 0.00 | 0.00 | 12 | 1003.7 |
| 20260508003106 | 31 | 289 | 4.8 | 11.3 | 0.00 | 0.00 | 0.00 | 12 | 1003.6 |
| 20260508001555 | 30 | 328 | 6.4 | 14.5 | 0.00 | 0.00 | 0.00 | 12 | 1003.5 |
| 20260508000053 | 31 | 322 | 1.6 | 4.8 | 0.00 | 0.00 | 0.00 | 12 | 1003.6 |
| 20260507234553 | 30 | 282 | 1.6 | 4.8 | 0.00 | 0.00 | 0.00 | 12 | 1003.7 |
| 20260507233052 | 28 | 319 | 3.2 | 8.0 | 0.00 | 0.00 | 0.00 | 14 | 1003.8 |
| 20260507231556 | 30 | 309 | 3.2 | 9.7 | 0.00 | 0.00 | 0.00 | 13 | 1003.9 |
| 20260507230048 | 31 | 274 | 3.2 | 12.9 | 0.00 | 0.00 | 0.00 | 12 | 1003.9 |
| 20260507224558 | 31 | 103 | 0.0 | 16.1 | 0.00 | 0.00 | 0.00 | 12 | 1004.1 |
| 20260507223048 | 31 | 226 | 6.4 | 16.1 | 0.00 | 0.00 | 0.00 | 11 | 1004.1 |
| 20260507221544 | 31 | 279 | 1.6 | 12.9 | 0.00 | 0.00 | 0.00 | 13 | 1004.3 |
| 20260507220041 | 31 | 137 | 3.2 | 14.5 | 0.00 | 0.00 | 0.00 | 11 | 1004.4 |
| 20260507214541 | 30 | 260 | 3.2 | 12.9 | 0.00 | 0.00 | 0.00 | 13 | 1004.7 |
| 20260507213037 | 30 | 105 | 6.4 | 12.9 | 0.00 | 0.00 | 0.00 | 11 | 1005.0 |
| 20260507211534 | 31 | 70 | 6.4 | 12.9 | 0.00 | 0.00 | 0.00 | 12 | 1005.1 |
| 20260507210058 | 30 | 13 | 1.6 | 9.7 | 0.00 | 0.00 | 0.00 | 13 | 1005.5 |
| 20260507204528 | 29 | 281 | 0.0 | 4.8 | 0.00 | 0.00 | 0.00 | 13 | 1005.7 |
| 20260507203028 | 29 | 131 | 4.8 | 16.1 | 0.00 | 0.00 | 0.00 | 12 | 1006.0 |
| 20260507201532 | 30 | 290 | 1.6 | 8.0 | 0.00 | 0.00 | 0.00 | 13 | 1006.1 |
| 20260507200038 | 30 | 279 | 0.0 | 8.0 | 0.00 | 0.00 | 0.00 | 13 | 1006.2 |
| 20260507194521 | 29 | 261 | 0.0 | 8.0 | 0.00 | 0.00 | 0.00 | 13 | 1006.3 |
| 20260507193026 | 29 | 314 | 0.0 | 17.7 | 0.00 | 0.00 | 0.00 | 14 | 1006.6 |
| 20260507191524 | 28 | 75 | 6.4 | 11.3 | 0.00 | 0.00 | 0.00 | 13 | 1006.7 |
| 20260507190023 | 28 | 320 | 3.2 | 17.7 | 0.00 | 0.00 | 0.00 | 14 | 1006.9 |
| 20260507184513 | 28 | 108 | 0.0 | 9.7 | 0.00 | 0.00 | 0.00 | 14 | 1007.1 |
| 20260507183009 | 27 | 308 | 3.2 | 11.3 | 0.00 | 0.00 | 0.00 | 16 | 1007.2 |
| 20260507181506 | 27 | 328 | 1.6 | 6.4 | 0.00 | 0.00 | 0.00 | 19 | 1007.5 |
| 20260507180001 | 27 | 256 | 1.6 | 8.0 | 0.00 | 0.00 | 0.00 | 19 | 1007.9 |
| 20260507174608 | 26 | 277 | 1.6 | 9.7 | 0.00 | 0.00 | 0.00 | 22 | 1008.1 |
| 20260507173131 | 26 | 304 | 3.2 | 6.4 | 0.00 | 0.00 | 0.00 | 22 | 1008.4 |
| 20260507171552 | 25 | 254 | 1.6 | 8.0 | 0.00 | 0.00 | 0.00 | 22 | 1008.5 |
| 20260507170052 | 24 | 323 | 1.6 | 6.4 | 0.00 | 0.00 | 0.00 | 25 | 1008.7 |
| 20260507164553 | 23 | 328 | 0.0 | 6.4 | 0.00 | 0.00 | 0.00 | 26 | 1008.8 |
| 20260507163042 | 22 | 288 | 1.6 | 8.0 | 0.00 | 0.00 | 0.00 | 25 | 1009.0 |
| 20260507161540 | 22 | 251 | 1.6 | 8.0 | 0.00 | 0.00 | 0.00 | 26 | 1009.1 |
| 20260507160057 | 22 | 259 | 0.0 | 6.4 | 0.00 | 0.00 | 0.00 | 27 | 1009.3 |
| 20260507154535 | 21 | 321 | 1.6 | 6.4 | 0.00 | 0.00 | 0.00 | 29 | 1009.3 |
| 20260507153033 | 20 | 274 | 0.0 | 1.6 | 0.00 | 0.00 | 0.00 | 30 | 1009.5 |
| 20260507151529 | 20 | 224 | 0.0 | 1.6 | 0.00 | 0.00 | 0.00 | 32 | 1009.5 |
| 20260507150025 | 19 | 136 | 0.0 | 0.0 | 0.00 | 0.00 | 0.00 | 34 | 1009.7 |
| 20260507144532 | 19 | 108 | 0.0 | 1.6 | 0.00 | 0.00 | 0.00 | 35 | 1009.6 |
| 20260507143020 | 18 | 170 | 0.0 | 0.0 | 0.00 | 0.00 | 0.00 | 36 | 1009.8 |
| 20260507141523 | 18 | 176 | 0.0 | 0.0 | 0.00 | 0.00 | 0.00 | 39 | 1009.8 |
| 20260507140014 | 17 | 176 | 0.0 | 0.0 | 0.00 | 0.00 | 0.00 | 43 | 1009.8 |
| 20260507134512 | 16 | 46 | 0.0 | 0.0 | 0.00 | 0.00 | 0.00 | 45 | 1009.7 |
| 20260507133013 | 13 | 46 | 0.0 | 0.0 | 0.00 | 0.00 | 0.00 | 51 | 1009.7 |
| 20260507131510 | 12 | 46 | 0.0 | 0.0 | 0.00 | 0.00 | 0.00 | 52 | 1009.7 |
| 20260507130024 | 13 | 46 | 0.0 | 0.0 | 0.00 | 0.00 | 0.00 | 49 | 1009.4 |
| 20260507124512 | 12 | 46 | 0.0 | 0.0 | 0.00 | 0.00 | 0.00 | 47 | 1009.3 |
| 20260507123008 | 12 | 20 | 0.0 | 0.0 | 0.00 | 0.00 | 0.00 | 50 | 1009.2 |
| 20260507121508 | 12 | 20 | 0.0 | 0.0 | 0.00 | 0.00 | 0.00 | 49 | 1009.1 |
| 20260507120010 | 12 | 20 | 0.0 | 1.6 | 0.00 | 0.00 | 0.00 | 50 | 1009.3 |
| 20260507114504 | 12 | 349 | 0.0 | 0.0 | 0.00 | 0.00 | 0.00 | 49 | 1009.3 |
| 20260507113003 | 13 | 342 | 0.0 | 1.6 | 0.00 | 0.00 | 0.00 | 46 | 1009.3 |
| 20260507111503 | 12 | 351 | 0.0 | 0.0 | 0.00 | 0.00 | 0.00 | 51 | 1009.3 |
| 20260507110059 | 13 | 351 | 0.0 | 0.0 | 0.00 | 0.00 | 0.00 | 53 | 1009.4 |
| 20260507104556 | 13 | 351 | 0.0 | 0.0 | 0.00 | 0.00 | 0.00 | 51 | 1009.4 |
| 20260507103053 | 14 | 351 | 0.0 | 0.0 | 0.00 | 0.00 | 0.00 | 50 | 1009.2 |
| 20260507101602 | 15 | 351 | 0.0 | 1.6 | 0.00 | 0.00 | 0.00 | 40 | 1009.2 |
| 20260507100050 | 14 | 328 | 0.0 | 1.6 | 0.00 | 0.00 | 0.00 | 40 | 1009.3 |
| 20260507094549 | 15 | 326 | 0.0 | 0.0 | 0.00 | 0.00 | 0.00 | 40 | 1009.3 |
| 20260507093047 | 15 | 326 | 0.0 | 1.6 | 0.00 | 0.00 | 0.00 | 42 | 1009.4 |
| 20260507091545 | 15 | 326 | 0.0 | 3.2 | 0.00 | 0.00 | 0.00 | 41 | 1009.7 |
| 20260507090043 | 15 | 326 | 1.6 | 3.2 | 0.00 | 0.00 | 0.00 | 40 | 1009.9 |
| 20260507084544 | 16 | 325 | 1.6 | 3.2 | 0.00 | 0.00 | 0.00 | 37 | 1009.9 |
| 20260507083041 | 15 | 325 | 1.6 | 3.2 | 0.00 | 0.00 | 0.00 | 38 | 1009.8 |
| 20260507081540 | 16 | 314 | 0.0 | 3.2 | 0.00 | 0.00 | 0.00 | 41 | 1010.0 |
| 20260507080040 | 16 | 335 | 1.6 | 4.8 | 0.00 | 0.00 | 0.00 | 39 | 1009.9 |
| 20260507074539 | 15 | 335 | 1.6 | 3.2 | 0.00 | 0.00 | 0.00 | 44 | 1009.9 |
| 20260507073036 | 15 | 338 | 0.0 | 3.2 | 0.00 | 0.00 | 0.00 | 48 | 1009.8 |
| 20260507071533 | 15 | 97 | 0.0 | 0.0 | 0.00 | 0.00 | 0.00 | 45 | 1010.0 |
| 20260507070031 | 15 | 97 | 0.0 | 0.0 | 0.00 | 0.00 | 0.00 | 42 | 1009.9 |
| 20260507064530 | 15 | 97 | 0.0 | 1.6 | 0.00 | 0.00 | 0.00 | 44 | 1009.8 |
| 20260507063032 | 15 | 97 | 0.0 | 0.0 | 0.00 | 0.00 | 0.00 | 46 | 1009.8 |
| 20260507061529 | 16 | 97 | 0.0 | 0.0 | 0.00 | 0.00 | 0.00 | 42 | 1009.7 |
| 20260507060029 | 17 | 97 | 0.0 | 1.6 | 0.00 | 0.00 | 0.00 | 35 | 1009.7 |
| 20260507054528 | 17 | 97 | 0.0 | 1.6 | 0.00 | 0.00 | 0.00 | 37 | 1009.5 |
| 20260507053028 | 16 | 97 | 0.0 | 0.0 | 0.00 | 0.00 | 0.00 | 46 | 1009.4 |